Weather History for Sioux Falls, SD

Change the Weather History Date:

Wednesday, November 21, 2012

  Actual Average Record
Temperature  
Mean Temperature 56 °F 29 °F  
Max Temperature 70 °F 39 °F 70 °F (2012)
Min Temperature 42 °F 20 °F -8 °F (1964)
Degree Days  
Heating Degree Days 9 36  
Month to date heating degree days 540 625  
Since 1 July heating degree days 1275 1365  
Cooling Degree Days 0 0  
Month to date cooling degree days 0 0  
Year to date cooling degree days 1182 690  
Growing Degree Days 6 (Base 50)    
Moisture  
Dew Point 35 °F    
Average Humidity 48    
Maximum Humidity 73    
Minimum Humidity 23    
Precipitation  
Precipitation 0.00 in 0.04 in 0.90 in (1979)
Month to date precipitation 0.35 0.98  
Year to date precipitation 16.03 25.31  
Snow  
Snow 0.00 in 0.30 in 8.50 in (1979)
Month to date snowfall T 4.6  
Since 1 July snowfall 1.1 5.9  
Since 1 September snowfall 1.1 5.9  
Snow Depth 0.00 in    
Sea Level Pressure  
Sea Level Pressure 29.83 in    
Wind  
Wind Speed 11 mph (SSW)    
Max Wind Speed 24 mph    
Max Gust Speed 30 mph    
Visibility 10 miles    
Events      
T = Trace of Precipitation, MM = Missing Value Source: NWS Daily Summary

Daily Weather History Graph

Daily Weather History Graph

Search for Another Location

Airport:

Trip Planner

Search our weather history database for the weather conditions in past years. The results will help you decide how hot, cold, wet, or windy it might be!

Date:

Astronomy

Nov. 21, 2012 Rise Set
Actual Time 7:29 AM CST 4:56 PM CST
Civil Twilight 6:57 AM CST 5:27 PM CST
Nautical Twilight 6:22 AM CST 6:03 PM CST
Astronomical Twilight 5:48 AM CST 6:37 PM CST
Moon 1:23 PM CST (11/21) 12:38 AM CST (11/21)
Length of Visible Light 10h 30m
Length of Day
9h 27m
First Quarter, 62% of the Moon is Illuminated
Nov 21
First Quarter
Nov 28
Full
Dec 6
Last Quarter
Dec 13
New
Dec 19
First Quarter

Hourly Weather History & Observations

Time (CST) Temp. Windchill Dew Point Humidity Pressure Visibility Wind Dir Wind Speed Gust Speed Precip Events Conditions
12:56 AM 48.0 °F - 34.0 °F 58% 29.99 in 10.0 mi SSW 8.1 mph - N/A   Clear
1:56 AM 46.0 °F 43.1 °F 34.0 °F 63% 29.99 in 10.0 mi SSW 5.8 mph - N/A   Clear
2:56 AM 44.1 °F 40.1 °F 34.0 °F 68% 29.98 in 10.0 mi South 6.9 mph - N/A   Clear
3:56 AM 43.0 °F 38.8 °F 34.0 °F 71% 29.97 in 10.0 mi South 6.9 mph - N/A   Clear
4:56 AM 44.1 °F 39.5 °F 34.0 °F 68% 29.96 in 10.0 mi South 8.1 mph - N/A   Clear
5:56 AM 44.6 °F 40.7 °F 33.8 °F 66% 29.94 in 10.0 mi SSW 6.9 mph - N/A   Clear
6:56 AM 43.0 °F 38.8 °F 34.0 °F 71% 29.95 in 10.0 mi SSW 6.9 mph - N/A   Clear
7:56 AM 42.1 °F 37.7 °F 34.0 °F 73% 29.95 in 10.0 mi SSW 6.9 mph - N/A   Clear
8:56 AM 46.9 °F - 35.1 °F 63% 29.94 in 10.0 mi South 8.1 mph - N/A   Clear
9:56 AM 52.0 °F - 35.1 °F 53% 29.92 in 10.0 mi South 15.0 mph - N/A   Clear
10:56 AM 55.9 °F - 34.0 °F 44% 29.90 in 10.0 mi SSW 8.1 mph - N/A   Clear
11:56 AM 61.0 °F - 35.1 °F 38% 29.86 in 10.0 mi SSW 12.7 mph - N/A   Clear
12:56 PM 64.9 °F - 34.0 °F 32% 29.82 in 10.0 mi South 16.1 mph 23.0 mph N/A   Clear
1:56 PM 69.8 °F - 30.2 °F 23% 29.78 in 10.0 mi SSW 18.4 mph 27.6 mph N/A   Clear
2:56 PM 68.0 °F - 30.9 °F 25% 29.77 in 10.0 mi SSW 16.1 mph 25.3 mph N/A   Clear
3:56 PM 69.1 °F - 32.0 °F 25% 29.75 in 10.0 mi SSW 16.1 mph 23.0 mph N/A   Clear
4:56 PM 64.9 °F - 33.1 °F 31% 29.74 in 10.0 mi South 12.7 mph - N/A   Clear
5:56 PM 63.0 °F - 35.1 °F 35% 29.74 in 10.0 mi South 13.8 mph - N/A   Clear
6:56 PM 60.1 °F - 37.9 °F 44% 29.73 in 10.0 mi South 13.8 mph - N/A   Clear
7:56 PM 57.9 °F - 39.0 °F 49% 29.72 in 10.0 mi SSW 10.4 mph 19.6 mph N/A   Clear
8:56 PM 57.9 °F - 39.9 °F 51% 29.71 in 10.0 mi SSW 11.5 mph - N/A   Clear
9:56 PM 57.0 °F - 39.0 °F 51% 29.70 in 10.0 mi SSW 13.8 mph 20.7 mph N/A   Clear
10:56 PM 55.9 °F - 37.9 °F 51% 29.68 in 10.0 mi SSW 15.0 mph 21.9 mph N/A   Clear
11:56 PM 54.0 °F - 37.0 °F 53% 29.66 in 10.0 mi SSW 12.7 mph - N/A   Clear